Change the Weather History Date:

Thursday, September 12, 2013

  Actual Average (KP28) Record (KP28)
Temperature  
Mean Temperature 70 °F 73 °F  
Max Temperature 73 °F 85 °F 103 °F (2011)
Min Temperature 68 °F 60 °F 35 °F (1902)
Degree Days  
Heating Degree Days 0 0  
Month to date heating degree days 0  
Since 1 July heating degree days 0  
Cooling Degree Days 6 8  
Month to date cooling degree days 121  
Year to date cooling degree days 1632  
Growing Degree Days 20 (Base 50)    
Moisture  
Dew Point 66 °F    
Average Humidity 86    
Maximum Humidity 94    
Minimum Humidity 73    
Precipitation  
Precipitation 0.02 in 0.07 in 4.35 in (1912)
Month to date precipitation 0.93  
Year to date precipitation 21.28  
Snow  
Snow 0.00 in 0.00 in - ()
Month to date snowfall 0.0  
Since 1 July snowfall 0.0  
Since 1 September snowfall 0.0  
Snow Depth -    
Sea Level Pressure  
Sea Level Pressure 30.18 in    
Wind  
Wind Speed 7 mph (ENE)    
Max Wind Speed 12 mph    
Max Gust Speed -    
Visibility 9 miles    
Events Rain    
T = Trace of Precipitation, MM = Missing Value Source: NWS Daily Summary

Daily Weather History Graph

Daily Weather History Graph

Search for Another Location

Airport or City:

Trip Planner

Search our weather history database for the weather conditions in past years. The results will help you decide how hot, cold, wet, or windy it might be!

Date:

Astronomy

Sep. 12, 2013 Rise Set
Actual Time 7:14 AM CDT 7:47 PM CDT
Civil Twilight 6:48 AM CDT 8:13 PM CDT
Nautical Twilight 6:17 AM CDT 8:44 PM CDT
Astronomical Twilight 5:45 AM CDT 9:16 PM CDT
Moon 2:36 PM CDT (9/12) No Moon Set
Length of Visible Light 13h 25m
Length of Day
12h 32m
Waxing Crescent, 50% of the Moon is Illuminated
Sep 12
Waxing Crescent
Sep 12
First Quarter
Sep 19
Full
Sep 26
Last Quarter
Oct 4
New

Hourly Weather History & Observations

Time (CDT) Temp. Dew Point Humidity Pressure Visibility Wind Dir Wind Speed Gust Speed Precip Events Conditions
12:15 AM 71.6 °F 64.4 °F 78% 30.17 in 10.0 mi NNE 4.6 mph - N/A   Overcast
12:35 AM 71.6 °F 64.4 °F 78% 30.17 in 10.0 mi ENE 8.1 mph - N/A   Mostly Cloudy
12:55 AM 71.6 °F 64.4 °F 78% 30.16 in 10.0 mi NE 6.9 mph - N/A   Mostly Cloudy
1:15 AM 71.6 °F 64.4 °F 78% 30.17 in 10.0 mi NNE 9.2 mph - N/A   Mostly Cloudy
1:35 AM 69.8 °F 64.4 °F 83% 30.16 in 10.0 mi NE 8.1 mph - N/A   Overcast
1:55 AM 69.8 °F 64.4 °F 83% 30.16 in 10.0 mi NE 9.2 mph - N/A   Overcast
2:15 AM 69.8 °F 64.4 °F 83% 30.17 in 10.0 mi NE 8.1 mph - N/A   Scattered Clouds
2:35 AM 69.8 °F 66.2 °F 88% 30.16 in 10.0 mi NE 9.2 mph - N/A   Mostly Cloudy
2:55 AM 69.8 °F 66.2 °F 88% 30.16 in 10.0 mi NE 10.4 mph - N/A   Mostly Cloudy
3:15 AM 69.8 °F 66.2 °F 88% 30.16 in 10.0 mi NE 8.1 mph - N/A   Scattered Clouds
3:35 AM 69.8 °F 66.2 °F 88% 30.16 in 10.0 mi NE 9.2 mph - N/A   Mostly Cloudy
3:55 AM 69.8 °F 66.2 °F 88% 30.16 in 10.0 mi NE 8.1 mph - N/A   Mostly Cloudy
4:15 AM 69.8 °F 66.2 °F 88% 30.16 in 10.0 mi NE 6.9 mph - N/A   Scattered Clouds
4:35 AM 69.8 °F 66.2 °F 88% 30.16 in 10.0 mi Calm Calm - N/A   Scattered Clouds
4:55 AM 69.8 °F 66.2 °F 88% 30.16 in 10.0 mi ENE 6.9 mph - N/A   Mostly Cloudy
5:15 AM 69.8 °F 66.2 °F 88% 30.15 in 10.0 mi ENE 9.2 mph - N/A   Mostly Cloudy
5:35 AM 68.0 °F 66.2 °F 94% 30.15 in 10.0 mi East 6.9 mph - N/A   Overcast
5:55 AM 68.0 °F 66.2 °F 94% 30.16 in 10.0 mi ENE 4.6 mph - N/A   Overcast
6:15 AM 68.0 °F 66.2 °F 94% 30.16 in 10.0 mi ENE 5.8 mph - N/A   Overcast
6:35 AM 68.0 °F 66.2 °F 94% 30.17 in 10.0 mi East 4.6 mph - N/A   Overcast
6:55 AM 68.0 °F 66.2 °F 94% 30.17 in 10.0 mi ENE 5.8 mph - N/A   Overcast
7:15 AM 68.0 °F 66.2 °F 94% 30.17 in 10.0 mi ENE 6.9 mph - N/A   Overcast
7:35 AM 68.0 °F 66.2 °F 94% 30.18 in 10.0 mi ENE 5.8 mph - N/A   Overcast
7:55 AM 68.0 °F 66.2 °F 94% 30.18 in 10.0 mi ENE 6.9 mph - N/A   Overcast
8:15 AM 69.8 °F 66.2 °F 88% 30.19 in 7.0 mi NE 5.8 mph - N/A   Overcast
8:35 AM 69.8 °F 66.2 °F 88% 30.19 in 10.0 mi East 5.8 mph - N/A   Overcast
8:55 AM 69.8 °F 66.2 °F 88% 30.19 in 10.0 mi ENE 6.9 mph - N/A   Overcast
9:15 AM 69.8 °F 66.2 °F 88% 30.19 in 10.0 mi East 6.9 mph - N/A   Overcast
9:35 AM 69.8 °F 66.2 °F 88% 30.19 in 10.0 mi ENE 8.1 mph - N/A   Light Drizzle
9:55 AM 71.6 °F 66.2 °F 83% 30.20 in 10.0 mi ENE 8.1 mph - N/A   Mostly Cloudy
10:15 AM 71.6 °F 64.4 °F 78% 30.20 in 10.0 mi ENE 10.4 mph - N/A   Mostly Cloudy
10:35 AM 73.4 °F 64.4 °F 73% 30.21 in 10.0 mi ENE 9.2 mph - N/A   Mostly Cloudy
10:55 AM 73.4 °F 64.4 °F 73% 30.21 in 10.0 mi ENE 8.1 mph - N/A   Scattered Clouds
11:15 AM 73.4 °F 64.4 °F 73% 30.22 in 10.0 mi ENE 11.5 mph - N/A   Scattered Clouds
11:35 AM 73.4 °F 66.2 °F 78% 30.22 in 10.0 mi East 9.2 mph - N/A Rain Light Rain
11:55 AM 73.4 °F 66.2 °F 78% 30.22 in 10.0 mi ENE 9.2 mph - N/A   Mostly Cloudy
12:15 PM 73.4 °F 66.2 °F 78% 30.22 in 10.0 mi ENE 10.4 mph - N/A Rain Light Rain
12:35 PM 73.4 °F 68.0 °F 83% 30.21 in 10.0 mi East 10.4 mph - N/A Rain Light Rain
12:55 PM 73.4 °F 68.0 °F 83% 30.22 in 10.0 mi East 9.2 mph - N/A Rain Light Rain
1:15 PM 71.6 °F 68.0 °F 88% 30.22 in 10.0 mi NE 9.2 mph - N/A Rain Light Rain
1:35 PM 71.6 °F 68.0 °F 88% 30.22 in 10.0 mi ENE 8.1 mph - N/A Rain Light Rain
1:55 PM 71.6 °F 68.0 °F 88% 30.21 in 7.0 mi ENE 8.1 mph - N/A Rain Rain
2:15 PM 71.6 °F 68.0 °F 88% 30.21 in 10.0 mi ENE 8.1 mph - N/A   Light Drizzle
2:35 PM 71.6 °F 68.0 °F 88% 30.20 in 7.0 mi ENE 9.2 mph - N/A Rain Light Rain
2:55 PM 71.6 °F 68.0 °F 88% 30.19 in 7.0 mi NE 5.8 mph - 0.01 in Rain Light Rain
3:15 PM 71.6 °F 68.0 °F 88% 30.19 in 7.0 mi NNE 6.9 mph - N/A Rain Light Rain
3:35 PM 71.6 °F 68.0 °F 88% 30.18 in 7.0 mi ENE 6.9 mph - 0.01 in Rain Light Rain
3:55 PM 71.6 °F 69.8 °F 94% 30.18 in 7.0 mi NNE 6.9 mph - 0.01 in   Light Drizzle
4:15 PM 71.6 °F 69.8 °F 94% 30.17 in 7.0 mi NNE 6.9 mph - N/A   Scattered Clouds
4:35 PM 73.4 °F 68.0 °F 83% 30.16 in 10.0 mi NE 8.1 mph - N/A   Light Drizzle
4:55 PM 73.4 °F 68.0 °F 83% 30.16 in 10.0 mi NE 8.1 mph - N/A   Light Drizzle
5:15 PM 73.4 °F 68.0 °F 83% 30.15 in 10.0 mi NE 6.9 mph - N/A Rain Light Rain
5:35 PM 73.4 °F 68.0 °F 83% 30.15 in 10.0 mi NE 8.1 mph - N/A   Clear
5:55 PM 73.4 °F 66.2 °F 78% 30.14 in 10.0 mi ENE 10.4 mph - N/A   Clear
6:15 PM 73.4 °F 66.2 °F 78% 30.14 in 10.0 mi ENE 10.4 mph - N/A   Clear
6:35 PM 73.4 °F 66.2 °F 78% 30.15 in 10.0 mi ENE 8.1 mph - N/A   Clear
6:55 PM 73.4 °F 66.2 °F 78% 30.15 in 10.0 mi NE 10.4 mph - N/A   Clear
7:15 PM 71.6 °F 66.2 °F 83% 30.15 in 10.0 mi NE 8.1 mph - N/A   Clear
7:35 PM 71.6 °F 66.2 °F 83% 30.15 in 10.0 mi ENE 6.9 mph - N/A   Mostly Cloudy
7:55 PM 71.6 °F 66.2 °F 83% 30.15 in 10.0 mi ENE 8.1 mph - N/A   Overcast
8:15 PM 71.6 °F 66.2 °F 83% 30.16 in 10.0 mi ENE 8.1 mph - N/A   Scattered Clouds
8:35 PM 69.8 °F 66.2 °F 88% 30.16 in 10.0 mi ENE 8.1 mph - N/A   Clear
8:55 PM 69.8 °F 64.4 °F 83% 30.16 in 10.0 mi ENE 8.1 mph - N/A   Clear
9:15 PM 69.8 °F 64.4 °F 83% 30.17 in 10.0 mi ENE 6.9 mph - N/A   Scattered Clouds
9:35 PM 69.8 °F 64.4 °F 83% 30.17 in 10.0 mi ENE 4.6 mph - N/A   Scattered Clouds
9:55 PM 69.8 °F 66.2 °F 88% 30.18 in 10.0 mi ENE 4.6 mph - N/A   Mostly Cloudy
10:15 PM 69.8 °F 66.2 °F 88% 30.18 in 10.0 mi ENE 3.5 mph - N/A   Overcast
10:35 PM 69.8 °F 66.2 °F 88% 30.17 in 7.0 mi ENE 4.6 mph - N/A   Overcast
10:55 PM 68.0 °F 66.2 °F 94% 30.17 in 7.0 mi ENE 3.5 mph - N/A   Scattered Clouds
11:15 PM 68.0 °F 66.2 °F 94% 30.18 in 7.0 mi ENE 3.5 mph - N/A   Mostly Cloudy
11:35 PM 68.0 °F 66.2 °F 94% 30.17 in 7.0 mi ENE 3.5 mph - N/A   Overcast
11:55 PM 68.0 °F 66.2 °F 94% 30.17 in 5.0 mi Calm Calm - N/A   Overcast